Regional Weather Roundup
Issued by NWS

Home | Current Version | Previous Version | Text Only | Print | Product List | Glossary On
Versions: 1 2 3 4 5 6 7 8 9 10 11 12 13 14 15 16 17 18 19 20 21 22 23 24 25 26 27 28 29 30 31 32 33 34 35 36 37 38 39 40 41 42 43 44 45 46 47 48 49 50
000
ASUS45 KTFX 210310
RWRMT
MONTANA REGIONAL WEATHER ROUNDUP
NATIONAL WEATHER SERVICE GREAT FALLS MT
800 PM MST SAT JAN 20 2018

NOTE: "FAIR" INDICATES FEW OR NO CLOUDS BELOW 12000 FEET WITH NO
SIGNIFICANT WEATHER AND/OR OBSTRUCTIONS TO VISIBILITY.

MTZ001>007-043-210400-
WEST OF THE DIVIDE

CITY           SKY/WX    TMP DP  RH WIND       PRES   REMARKS
KALISPELL      FAIR      32  28  85 S9        30.01R WCI  24
MISSOULA       CLOUDY    30  25  81 NW6       30.04R WCI  24
BUTTE          CLOUDY    21  16  81 CALM      29.98R
MULLAN PASS    CLOUDY    22  19  89 VRB5      29.94S
ANACONDA         N/A     25  19  80 CALM      29.99S
DEER LODGE       N/A     25  19  80 CALM      30.02R
EUREKA           N/A     34  27  75 MISG      29.99R
HAMILTON         N/A     32  21  64 S5          N/A
RONAN            N/A     34  27  75 SE8       30.04S WCI  27
$$

MTZ008-052>055-210400-
SOUTHWEST MONTANA

CITY           SKY/WX    TMP DP  RH WIND       PRES   REMARKS
BOZEMAN        CLOUDY    26  18  71 NW5       30.00R
DILLON         CLOUDY    20  16  84 CALM      29.98S
ENNIS          CLOUDY    21  18  86 CALM      30.02S
W YELLOWSTONE  CLOUDY     5   3  92 SE5       29.93R
$$

MTZ009-010-012-014-046-048-049-054-210400-
EAST SLOPES AND CENTRAL MONTANA

CITY           SKY/WX    TMP DP  RH WIND       PRES   REMARKS
CUT BANK       FAIR      29  20  69 W16       29.88S WCI  17
GREAT FALLS    FAIR      27  19  72 SW13      29.93R WCI  16
MALMSTROM AFB  FAIR      28  21  78 SW13      29.94R WCI  17
HELENA         FAIR      31  18  58 W7        29.98R WCI  24
AUGUSTA        FAIR      26  18  71 W10       29.90R WCI  17
BOWMANS CRNR   FAIR      22  16  78 SW5       29.91R
CHOTEAU          N/A     32  18  55 W10       29.92S WCI  24
FAIRFIELD      FAIR      28  17  64 SW3       29.91R
POWER          FAIR      19  15  86 SW5       29.91R
RAYNESFORD     FAIR      31  17  57 SW15      29.93R WCI  20
ULM            FAIR      27  20  74 S8        29.95R WCI  19
WHITE SULPHUR    N/A     25  18  74 SE7       29.94S WCI  17
$$

MTZ011-013-016-021-045-047-050-051-210400-
NORTH CENTRAL MONTANA

CITY           SKY/WX    TMP DP  RH WIND       PRES   REMARKS
HAVRE          FAIR      26  21  81 SW12      29.90R WCI  16
LEWISTOWN      FAIR      22  16  78 SW12      29.93R WCI  10
N BAR RANCH    FAIR      27  10  50 W6        29.94S WCI  20
CHINOOK          N/A     19  16  86 E3        29.91R
DENTON         CLOUDY    26  19  74 MISG      29.89S
GEYSER         FAIR      26  17  70 W9        29.92R WCI  17
GRASS RANGE    FAIR      28  18  65 W16       29.90R WCI  17
STANFORD       FAIR      23  17  78 SW6       29.92R WCI  16
WINIFRED       MOCLDY    29  22  74 SW6       29.91S WCI  23
$$

MTZ017>020-022>027-061-062-210400-
NORTHEAST MONTANA

CITY           SKY/WX    TMP DP  RH WIND       PRES   REMARKS
GLASGOW        FAIR      19  16  88 S3        29.92R
GLENDIVE       FAIR      20  17  88 CALM      29.96R
JORDAN           N/A     19  14  81 W6        29.94R WCI  11
MALTA          CLEAR      9   7  92 W6        29.92S WCI  -1
SIDNEY         FAIR      24  20  84 S6        29.95R WCI  17
WOLF POINT     FAIR      16  12  84 SW7       29.94R WCI   6
PLENTYWOOD       N/A     25  18  74 CALM      29.90S
POPLAR           N/A     21  18  86 CALM      29.95R
$$

MTZ028>42-056>058-210400-
SOUTHCENTRAL AND SOUTHEAST MONTANA

CITY           SKY/WX    TMP DP  RH WIND       PRES   REMARKS
BAKER          FAIR      23  19  85 CALM      29.96R
BILLINGS       FAIR      29  17  61 SW9       29.96R WCI  20
LIVINGSTON     CLOUDY    26  18  71 W6        29.96S WCI  19
MILES CITY     FAIR      25  19  78 SW5       29.96S
BIG TIMBER     CLEAR     25  16  68 SW20      29.96F WCI  11
FORSYTH          N/A     28  19  69 CALM      29.96S
HARLOWTON      FAIR      24  16  72 NW21      29.94R WCI   9
LAUREL           N/A     30  16  55 W15G21    29.97  WCI  19
$$

REGIONAL REPORTS...DAKOTAS

CITY           SKY/WX    TMP DP  RH WIND       PRES   REMARKS
WILLISTON      FAIR      20  15  81 SW3       29.93R
MINOT          FAIR      29  20  69 W9        29.90R WCI  20
DICKINSON      FAIR      26  21  81 W12       29.91R WCI  16
BEACH          FAIR      25  19  80 SW10      29.97S WCI  15
CROSBY         FAIR      18  16  93 S8        29.91R WCI   7
TIOGA          FAIR      19  19 100 W7        29.92R WCI  10
BISMARCK       FAIR      24  21  88 S3        29.94R
GRAND FORKS    FAIR      21  19  92 S5        29.88S
FARGO          FAIR      31  28  89 W3        29.91S
BUFFALO SD       N/A     29  23  78 NW10      29.88S WCI  20
RAPID CITY     CLOUDY    33  25  72 N6        29.96R WCI  28
$$

REGIONAL REPORTS...WYOMING/IDAHO/WASHINGTON

CITY           SKY/WX    TMP DP  RH WIND       PRES   REMARKS
GILLETTE       CLOUDY    26  24  92 S5        29.94S
SHERIDAN       CLOUDY    27  20  75 S3        29.96R
BUFFALO WY     CLOUDY    27  16  63 NW5       29.93S
CODY           FAIR      26  21  81 CALM      29.94R
YELLOWSTONE LA   N/A      2   0  91 VRB3      29.90R
IDAHO FALLS    FAIR      27  18  69 N7        29.98S WCI  19
SALMON         CLOUDY    28  23  81 CALM      30.06R
BOISE          CLOUDY    36  27  69 W5        30.10R
SPOKANE        MOCLDY    34  29  82 S5        30.06R
$$

REGIONAL REPORTS...ALBERTA

CITY           SKY/WX    TMP DP  RH WIND       PRES   REMARKS
CALGARY        PTCLDY    34  10  37 W14G21    29.76S WCI  24
CARDSTON         N/A     34  19  55 W8          N/A  WCI  27
EDMONTON       CLOUDY    19  18  93 NE3       29.81R
FORT MCMURRAY  LGT SNOW  18  16  93 NW7       29.87R WCI   8
HIGH LEVEL     FLURRIES  18  12  79 N3        29.92R
LETHBRIDGE     PTCLDY    36  21  55 W21       29.85S WCI  24
LLOYDMINSTER   FLURRIES  23  21  93 SW5       29.81S
MEDICINE HAT   CLEAR     27  23  86 SW6       29.84R WCI  20
ONEFOUR          N/A     25  18  74 NW9         N/A  WCI  15
PEACE RIVER    FLURRIES  19  16  86 NE8       29.84S WCI   9
PINCHER CREEK  CLOUDY    32  21  64 W20G25    29.86R WCI  20
WATERTON GATE    N/A     32  19  59 SW20G28     N/A  WCI  20
$$

REGIONAL REPORTS...SASKATCHEWAN

CITY           SKY/WX    TMP DP  RH WIND       PRES   REMARKS
CORONACH         N/A     14  12  92 S2          N/A
CYPRESS HILLS    N/A     23  16  74 SW3         N/A
ESTEVAN        CLEAR     16  14  93 SW8       29.89R WCI   5
MOOSE JAW        N/A     16  12  86 SW6         N/A  WCI   7
PRINCE ALBERT  CLOUDY    18  14  86 S3        29.90R
REGINA         CLEAR     19  18  93 SW6       29.87S WCI  11
ROCKGLEN         N/A     19  16  86 W10         N/A  WCI   8
SASKATOON      PTCLDY    18  16  93 SW8       29.88R WCI   7
SWIFT CURRENT  CLEAR     21  16  79 S7        29.82S WCI  13
VAL MARIE        N/A     12   9  85 NE1         N/A
$$



USA.gov is the U.S. government's official web portal to all federal, state and local government web resources and services.